Regional Weather Roundup
Issued by NWS

Home | Current Version | Previous Version | Graphics & Text | Print | Product List | Glossary On
Versions: 1 2 3 4 5 6 7 8 9 10 11 12 13 14 15 16 17 18 19 20 21 22 23 24 25 26 27 28 29 30 31 32 33 34 35 36 37 38 39 40 41 42 43 44 45 46 47 48 49 50
000
ASUS45 KCYS 010410
RWRWY

WYOMING REGIONAL WEATHER ROUNDUP
NATIONAL WEATHER SERVICE CHEYENNE WY
1000 PM MDT THU JUL 31 2014

NOTE:  "FAIR" INDICATES FEW OR NO CLOUDS BELOW 12,000 FEET
WITH NO SIGNIFICANT WEATHER AND/OR OBSTRUCTIONS TO VISIBILITY.

WYZ001-010500-
YELLOWSTONE NATIONAL PARK

CITY           SKY/WX    TMP DP  RH WIND       PRES   REMARKS
LK YELLOWSTONE   N/A     54  42  64 CALM      30.47R
W YELLOWSTONE  NOT AVBL

$$
WYZ002>013-054>058-071-098>099-010500-
NORTHERN WYOMING

CITY           SKY/WX    TMP DP  RH WIND       PRES   REMARKS
JACKSON        MOCLDY    63  46  55 N10       30.31R
CODY           PTCLDY    72  39  30 W5        30.20R
GREYBULL       PTCLDY    77  40  26 W12       30.10R
WORLAND        PTCLDY    72  41  32 SW6       30.11R
SHERIDAN       CLEAR     69  43  38 SE3       30.11R
BUFFALO        CLEAR     67  39  35 W9        30.19S
GILLETTE       PTCLDY    69  41  36 SW5       30.15R
HULETT         FAIR      70  45  40 MISG      30.16
NEWCASTLE      FAIR      72  37  28 E13       30.18

$$
WYZ014>020-022>026-101>103-010500-
CENTRAL WYOMING

CITY           SKY/WX    TMP DP  RH WIND       PRES   REMARKS
BIG PINEY      PTCLDY    60  44  55 NW7       30.34R
PINEDALE       PTCLDY    57  46  67 CALM      30.35R
DUBOIS         FAIR      57  39  51 NW7       30.36R
LANDER         PTCLDY    66  33  29 W12       30.22R
RIVERTON       PTCLDY    67  27  22 N7        30.22R
CASPER         PTCLDY    59  36  42 CALM      30.21R
DOUGLAS        PTCLDY    62  44  51 SE7       30.22R

$$
WYZ021-027>030-104>119-010500-
SOUTHERN WYOMING

CITY           SKY/WX    TMP DP  RH WIND       PRES   REMARKS
EVANSTON       PTCLDY    66  41  40 NE6       30.32R
KEMMERER       PTCLDY   N/A N/A N/A N8        30.35R
FORT BRIDGER   FAIR      68  44  41 NW3       30.34S
ROCK SPRINGS   CLEAR     69  27  20 E9        30.30R
DIXON          FAIR      65  43  44 E9        30.29R
RAWLINS        CLEAR     61  41  47 NE8       30.31R
SARATOGA       FAIR      61  46  59 S9        30.33R
LARAMIE        CLEAR     55  47  74 SE7       30.37R
CHEYENNE       PTCLDY    61  50  67 SW8       30.31R
TORRINGTON     PTCLDY    66  49  54 E10       30.18R
PINE BLUFFS    FAIR      64  52  63 S6        30.26S

$$



USA.gov is the U.S. government's official web portal to all federal, state and local government web resources and services.